Home > Weather > Norfolk > Past weeks

Flag for USA Past Weather in Norfolk, Virginia, USA — Yesterday and Last 2 Weeks

Now
72 °F

Partly sunny.


Feels Like: 73 °F
Forecast: 67 / 86 °F
Wind: 9 mph from East

Location: Norfolk Naval Air Station

Current Time: Jun 26, 2016 at 8:37:45 PM

Latest Report: Jun 26, 2016 at 7:59 PM


Visibility: 10 mi

Pressure: 30.15 "Hg

Humidity: 78%

Dew Point: 65 °F

Location of NorfolkLocation

Past Weather in Norfolk — Graph

°F

Norfolk Temperature Yesterday

Maximum temperature yesterday: 79 °F (at 1:59 PM)
Minimum temperature yesterday: 70 °F (at 11:59 PM)
Average temperature yesterday: 75 °F

High & Low Weather Summary for the Past Weeks

 TemperatureHumidityPressure
High92 °F (Jun 12, 1:59 PM)96% (Jun 16, 11:59 PM)30.38 "Hg (Jun 16, 11:59 PM)
Low60 °F (Jun 19, 4:59 AM)27% (Jun 19, 4:59 PM)29.67 "Hg (Jun 17, 2:59 AM)
Average76 °F67%30.00 "Hg
* Reported Jun 11 6:59 PM — Jun 26 6:59 PM, Norfolk, Weather by CustomWeather, © 2016

Note: Actual official high and low records may vary slightly from our data, if they occured in-between our weather recording intervals... More about our weather records

Advertising

Norfolk Weather History for the Previous 24 Hours

Scroll right to see more
 ConditionsComfort  
Time TempWeatherWind HumidityBarometerVisibility
6:59 PM
Sun, Jun 26
74 °FPartly sunny.8 mph74%30.17 "Hg10 mi
5:59 PM75 °FPartly sunny.10 mph74%30.18 "Hg10 mi
4:59 PM75 °FBroken clouds.9 mph69%30.20 "Hg10 mi
3:59 PM77 °FPartly sunny.10 mph66%30.22 "Hg10 mi
2:59 PM77 °FPartly sunny.13 mph66%30.23 "Hg10 mi
1:59 PM76 °FScattered clouds.10 mph69%30.23 "Hg10 mi
12:59 PM76 °FScattered clouds.9 mph67%30.23 "Hg10 mi
11:59 AM77 °FBroken clouds.14 mph64%30.23 "Hg10 mi
10:59 AM75 °FBroken clouds.15 mph71%30.23 "Hg10 mi
9:59 AM75 °FBroken clouds.10 mph71%30.22 "Hg10 mi
8:59 AM73 °FPartly sunny.13 mph74%30.21 "Hg10 mi
7:59 AM72 °FPartly sunny.8 mph76%30.22 "Hg10 mi
6:59 AM70 °FPartly sunny.7 mph79%30.23 "Hg10 mi
5:59 AM63 °FPassing clouds.3 mph93%30.22 "Hg8 mi
4:59 AM65 °FPassing clouds.6 mph87%30.21 "Hg10 mi
3:59 AM64 °FClear.3 mph90%30.19 "Hg9 mi
2:59 AM66 °FClear.3 mph84%30.19 "Hg10 mi
1:59 AM68 °FClear.5 mph78%30.18 "Hg10 mi
12:59 AM70 °FClear.7 mph79%30.19 "Hg10 mi
11:59 PM
Sat, Jun 25
70 °FClear.9 mph81%30.20 "Hg10 mi
10:59 PM71 °FPassing clouds.9 mph78%30.21 "Hg10 mi
9:59 PM71 °FClear.10 mph78%30.20 "Hg10 mi
8:59 PM72 °FPassing clouds.13 mph73%30.18 "Hg10 mi
Weather by CustomWeather, © 2016

See weather overviewHow to use our weather pages